Time,TemperatureF,DewpointF,PressureIn,WindDirection,WindDirectionDegrees,WindSpeedMPH,WindSpeedGustMPH,Humidity,HourlyPrecipIn,Conditions,Clouds,dailyrainin,SolarRadiationWatts/m^2,SoftwareType,DateUTC
2013-09-16 00:22:00,77.0,74.0,-100.00,NE,46,3.0,5.0,90,0.00,,,0.00,0.000000,,2013-09-16 05:22:00,
2013-09-16 00:33:00,77.0,74.0,-100.00,NE,46,3.0,5.0,90,0.00,,,0.00,0.000000,,2013-09-16 05:33:00,
2013-09-16 00:44:00,77.0,74.0,-100.00,NE,46,3.0,5.0,90,0.00,,,0.00,0.000000,,2013-09-16 05:44:00,
2013-09-16 00:52:00,77.0,74.0,-100.00,NE,46,3.0,5.0,90,0.00,,,0.00,0.000000,,2013-09-16 05:52:00,
2013-09-16 01:22:00,77.0,74.0,-100.00,NE,54,3.0,5.0,90,0.00,,,0.00,0.000000,,2013-09-16 06:22:00,
2013-09-16 01:32:00,77.0,74.0,-100.00,NE,54,3.0,5.0,90,0.00,,,0.00,0.000000,,2013-09-16 06:32:00,
2013-09-16 01:43:00,77.0,74.0,-100.00,NE,54,3.0,5.0,90,0.00,,,0.00,0.000000,,2013-09-16 06:43:00,
2013-09-16 01:52:00,77.0,74.0,-100.00,NE,54,3.0,5.0,90,0.00,,,0.00,0.000000,,2013-09-16 06:52:00,
2013-09-16 02:22:00,77.0,74.0,-100.00,NE,50,3.0,5.0,91,0.00,,,0.00,0.000000,,2013-09-16 07:22:00,
2013-09-16 02:32:00,77.0,74.0,-100.00,NE,50,3.0,5.0,91,0.00,,,0.00,0.000000,,2013-09-16 07:32:00,
2013-09-16 02:43:00,77.0,74.0,-100.00,NE,50,3.0,5.0,91,0.00,,,0.00,0.000000,,2013-09-16 07:43:00,
2013-09-16 02:52:00,77.0,74.0,-100.00,NE,50,3.0,5.0,91,0.00,,,0.00,0.000000,,2013-09-16 07:52:00,
2013-09-16 03:22:00,77.0,74.0,-100.00,NE,40,3.0,5.0,92,0.00,,,0.00,0.000000,,2013-09-16 08:22:00,
2013-09-16 03:32:00,77.0,74.0,-100.00,NE,40,3.0,5.0,92,0.00,,,0.00,0.000000,,2013-09-16 08:32:00,
2013-09-16 03:42:00,77.0,74.0,-100.00,NE,40,3.0,5.0,92,0.00,,,0.00,0.000000,,2013-09-16 08:42:00,
2013-09-16 03:52:00,77.0,74.0,-100.00,NE,40,3.0,5.0,92,0.00,,,0.00,0.000000,,2013-09-16 08:52:00,
2013-09-16 04:22:00,75.0,74.0,-100.00,NE,34,3.0,5.0,96,0.00,,,0.00,0.000000,,2013-09-16 09:22:00,
2013-09-16 04:33:00,75.0,74.0,-100.00,NE,34,3.0,5.0,96,0.00,,,0.00,0.000000,,2013-09-16 09:33:00,
2013-09-16 04:43:00,75.0,74.0,-100.00,NE,34,3.0,5.0,96,0.00,,,0.00,0.000000,,2013-09-16 09:43:00,
2013-09-16 04:53:00,75.0,74.0,-100.00,NE,34,3.0,5.0,96,0.00,,,0.00,0.000000,,2013-09-16 09:53:00,
2013-09-16 05:23:00,74.0,73.0,-100.00,NNE,32,3.0,6.0,97,0.00,,,0.00,0.000000,,2013-09-16 10:23:00,
2013-09-16 05:33:00,74.0,73.0,-100.00,NNE,32,3.0,6.0,97,0.00,,,0.00,0.000000,,2013-09-16 10:33:00,
2013-09-16 05:42:00,74.0,73.0,-100.00,NNE,32,3.0,6.0,97,0.00,,,0.00,0.000000,,2013-09-16 10:42:00,
2013-09-16 05:53:00,74.0,73.0,-100.00,NNE,32,3.0,6.0,97,0.00,,,0.00,0.000000,,2013-09-16 10:53:00,
2013-09-16 06:22:00,74.0,73.0,-100.00,North,7,4.0,5.0,97,0.00,,,0.00,0.000000,,2013-09-16 11:22:00,
2013-09-16 06:33:00,74.0,73.0,-100.00,North,7,4.0,5.0,97,0.00,,,0.00,0.000000,,2013-09-16 11:33:00,
2013-09-16 06:42:00,74.0,73.0,-100.00,North,7,4.0,5.0,97,0.00,,,0.00,0.000000,,2013-09-16 11:42:00,
2013-09-16 06:52:00,74.0,73.0,-100.00,North,7,4.0,5.0,97,0.00,,,0.00,0.000000,,2013-09-16 11:52:00,
2013-09-16 07:22:00,74.0,73.0,-100.00,NE,45,3.0,6.0,97,0.00,,,0.00,1.000000,,2013-09-16 12:22:00,
2013-09-16 07:32:00,74.0,73.0,-100.00,NE,45,3.0,6.0,97,0.00,,,0.00,1.000000,,2013-09-16 12:32:00,
2013-09-16 07:42:00,74.0,73.0,-100.00,NE,45,3.0,6.0,97,0.00,,,0.00,1.000000,,2013-09-16 12:42:00,
2013-09-16 07:52:00,74.0,73.0,-100.00,NE,45,3.0,6.0,97,0.00,,,0.00,1.000000,,2013-09-16 12:52:00,
2013-09-16 08:22:00,76.0,75.0,-100.00,NE,48,5.0,7.0,97,0.00,,,0.00,52.000000,,2013-09-16 13:22:00,
2013-09-16 08:32:00,76.0,75.0,-100.00,NE,48,5.0,7.0,97,0.00,,,0.00,52.000000,,2013-09-16 13:32:00,
2013-09-16 08:42:00,76.0,75.0,-100.00,NE,48,5.0,7.0,97,0.00,,,0.00,52.000000,,2013-09-16 13:42:00,
2013-09-16 08:52:00,76.0,75.0,-100.00,NE,48,5.0,7.0,97,0.00,,,0.00,52.000000,,2013-09-16 13:52:00,
2013-09-16 09:22:00,80.0,77.0,-100.00,NE,42,5.0,9.0,91,0.00,,,0.00,194.000000,,2013-09-16 14:22:00,
2013-09-16 09:32:00,80.0,77.0,-100.00,NE,42,5.0,9.0,91,0.00,,,0.00,194.000000,,2013-09-16 14:32:00,
2013-09-16 09:42:00,80.0,77.0,-100.00,NE,42,5.0,9.0,91,0.00,,,0.00,194.000000,,2013-09-16 14:42:00,
2013-09-16 09:52:00,80.0,77.0,-100.00,NE,42,5.0,9.0,91,0.00,,,0.00,194.000000,,2013-09-16 14:52:00,
2013-09-16 10:22:00,85.0,77.0,-100.00,North,3,7.0,10.0,78,0.00,,,0.00,521.000000,,2013-09-16 15:22:00,
2013-09-16 10:33:00,85.0,77.0,-100.00,North,3,7.0,10.0,78,0.00,,,0.00,521.000000,,2013-09-16 15:33:00,
2013-09-16 10:43:00,85.0,77.0,-100.00,North,3,7.0,10.0,78,0.00,,,0.00,521.000000,,2013-09-16 15:43:00,
2013-09-16 10:53:00,85.0,77.0,-100.00,North,3,7.0,10.0,78,0.00,,,0.00,521.000000,,2013-09-16 15:53:00,
2013-09-16 11:23:00,87.0,76.0,-100.00,NNE,18,8.0,12.0,69,0.00,,,0.00,714.000000,,2013-09-16 16:23:00,
2013-09-16 11:32:00,87.0,76.0,-100.00,NNE,18,8.0,12.0,69,0.00,,,0.00,714.000000,,2013-09-16 16:32:00,
2013-09-16 11:43:00,87.0,76.0,-100.00,NNE,18,8.0,12.0,69,0.00,,,0.00,714.000000,,2013-09-16 16:43:00,
2013-09-16 11:52:00,87.0,76.0,-100.00,NNE,18,8.0,12.0,69,0.00,,,0.00,714.000000,,2013-09-16 16:52:00,
2013-09-16 12:23:00,89.0,71.0,-100.00,NNE,12,7.0,12.0,56,0.00,,,0.00,706.000000,,2013-09-16 17:23:00,
2013-09-16 12:33:00,89.0,71.0,-100.00,NNE,12,7.0,12.0,56,0.00,,,0.00,706.000000,,2013-09-16 17:33:00,
2013-09-16 12:42:00,89.0,71.0,-100.00,NNE,12,7.0,12.0,56,0.00,,,0.00,706.000000,,2013-09-16 17:42:00,
2013-09-16 12:53:00,89.0,71.0,-100.00,NNE,12,7.0,12.0,56,0.00,,,0.00,706.000000,,2013-09-16 17:53:00,
2013-09-16 13:22:00,91.0,71.0,-100.00,NNE,30,7.0,13.0,52,0.00,,,0.00,912.000000,,2013-09-16 18:22:00,
2013-09-16 13:32:00,91.0,71.0,-100.00,NNE,30,7.0,13.0,52,0.00,,,0.00,912.000000,,2013-09-16 18:32:00,
2013-09-16 13:42:00,91.0,71.0,-100.00,NNE,30,7.0,13.0,52,0.00,,,0.00,912.000000,,2013-09-16 18:42:00,
2013-09-16 13:52:00,91.0,71.0,-100.00,NNE,30,7.0,13.0,52,0.00,,,0.00,912.000000,,2013-09-16 18:52:00,
2013-09-16 14:22:00,92.0,68.0,-100.00,ENE,66,9.0,14.0,46,0.00,,,0.00,1005.000000,,2013-09-16 19:22:00,
2013-09-16 14:32:00,92.0,68.0,-100.00,ENE,66,9.0,14.0,46,0.00,,,0.00,1005.000000,,2013-09-16 19:32:00,
2013-09-16 14:42:00,92.0,68.0,-100.00,ENE,66,9.0,14.0,46,0.00,,,0.00,1005.000000,,2013-09-16 19:42:00,
2013-09-16 14:53:00,92.0,68.0,-100.00,ENE,66,9.0,14.0,46,0.00,,,0.00,1005.000000,,2013-09-16 19:53:00,
2013-09-16 15:22:00,92.0,69.0,-100.00,ENE,66,6.0,15.0,48,0.00,,,0.00,789.000000,,2013-09-16 20:22:00,
2013-09-16 15:32:00,92.0,69.0,-100.00,ENE,66,6.0,15.0,48,0.00,,,0.00,789.000000,,2013-09-16 20:32:00,
2013-09-16 15:43:00,92.0,69.0,-100.00,ENE,66,6.0,15.0,48,0.00,,,0.00,789.000000,,2013-09-16 20:43:00,
2013-09-16 15:52:00,92.0,69.0,-100.00,ENE,66,6.0,15.0,48,0.00,,,0.00,789.000000,,2013-09-16 20:52:00,
2013-09-16 15:54:00,91.0,71.0,-100.00,ENE,72,8.0,12.0,53,0.00,,,0.00,470.000000,,2013-09-16 20:54:00,
2013-09-16 16:22:00,91.0,71.0,-100.00,ENE,72,8.0,12.0,53,0.00,,,0.00,470.000000,,2013-09-16 21:22:00,
2013-09-16 16:34:00,91.0,71.0,-100.00,ENE,72,8.0,12.0,53,0.00,,,0.00,470.000000,,2013-09-16 21:34:00,
2013-09-16 16:44:00,91.0,71.0,-100.00,ENE,72,8.0,12.0,53,0.00,,,0.00,470.000000,,2013-09-16 21:44:00,
2013-09-16 17:24:00,87.0,72.0,-100.00,SE,136,6.0,11.0,61,0.00,,,0.00,330.000000,,2013-09-16 22:24:00,
2013-09-16 17:33:00,87.0,72.0,-100.00,SE,136,6.0,11.0,61,0.00,,,0.00,330.000000,,2013-09-16 22:33:00,
2013-09-16 17:43:00,87.0,72.0,-100.00,SE,136,6.0,11.0,61,0.00,,,0.00,330.000000,,2013-09-16 22:43:00,
2013-09-16 17:53:00,87.0,72.0,-100.00,SE,136,6.0,11.0,61,0.00,,,0.00,330.000000,,2013-09-16 22:53:00,
2013-09-16 18:22:00,85.0,73.0,-100.00,SE,146,6.0,13.0,68,0.00,,,0.00,212.000000,,2013-09-16 23:22:00,
2013-09-16 18:34:00,85.0,73.0,-100.00,SE,146,6.0,13.0,68,0.00,,,0.00,212.000000,,2013-09-16 23:34:00,
2013-09-16 18:43:00,85.0,73.0,-100.00,SE,146,6.0,13.0,68,0.00,,,0.00,212.000000,,2013-09-16 23:43:00,
2013-09-16 18:52:00,85.0,73.0,-100.00,SE,146,6.0,13.0,68,0.00,,,0.00,212.000000,,2013-09-16 23:52:00,
2013-09-16 19:22:00,84.0,76.0,-100.00,SSE,149,3.0,10.0,78,0.00,,,0.00,81.000000,,2013-09-17 00:22:00,
2013-09-16 19:32:00,84.0,76.0,-100.00,SSE,149,3.0,10.0,78,0.00,,,0.00,81.000000,,2013-09-17 00:32:00,
2013-09-16 19:42:00,84.0,76.0,-100.00,SSE,149,3.0,10.0,78,0.00,,,0.00,81.000000,,2013-09-17 00:42:00,
2013-09-16 19:52:00,84.0,76.0,-100.00,SSE,149,3.0,10.0,78,0.00,,,0.00,81.000000,,2013-09-17 00:52:00,
2013-09-16 20:21:00,82.0,76.0,-100.00,East,88,4.0,7.0,83,0.00,,,0.00,5.000000,,2013-09-17 01:21:00,
2013-09-16 20:32:00,82.0,76.0,-100.00,East,88,4.0,7.0,83,0.00,,,0.00,5.000000,,2013-09-17 01:32:00,
2013-09-16 20:42:00,82.0,76.0,-100.00,East,88,4.0,7.0,83,0.00,,,0.00,5.000000,,2013-09-17 01:42:00,
2013-09-16 20:52:00,82.0,76.0,-100.00,East,88,4.0,7.0,83,0.00,,,0.00,5.000000,,2013-09-17 01:52:00,
2013-09-16 21:22:00,81.0,75.0,-100.00,ENE,78,4.0,7.0,83,0.00,,,-99.99,0.000000,,2013-09-17 02:22:00,
2013-09-16 21:32:00,81.0,75.0,-100.00,ENE,78,4.0,7.0,83,0.00,,,-99.99,0.000000,,2013-09-17 02:32:00,
2013-09-16 21:42:00,81.0,75.0,-100.00,ENE,78,4.0,7.0,83,0.00,,,-99.99,0.000000,,2013-09-17 02:42:00,
2013-09-16 21:52:00,81.0,75.0,-100.00,ENE,78,4.0,7.0,83,0.00,,,-99.99,0.000000,,2013-09-17 02:52:00,
2013-09-16 21:54:00,79.0,72.0,-100.00,East,85,5.0,9.0,78,0.00,,,0.00,0.000000,,2013-09-17 02:54:00,
2013-09-16 22:23:00,79.0,72.0,-100.00,East,85,5.0,9.0,78,0.00,,,0.00,0.000000,,2013-09-17 03:23:00,
2013-09-16 22:34:00,79.0,72.0,-100.00,East,85,5.0,9.0,78,0.00,,,0.00,0.000000,,2013-09-17 03:34:00,
2013-09-16 22:45:00,79.0,72.0,-100.00,East,85,5.0,9.0,78,0.00,,,0.00,0.000000,,2013-09-17 03:45:00,
2013-09-16 23:24:00,78.0,73.0,-100.00,East,97,2.0,7.0,84,0.00,,,0.00,0.000000,,2013-09-17 04:24:00,
2013-09-16 23:34:00,78.0,73.0,-100.00,East,97,2.0,7.0,84,0.00,,,0.00,0.000000,,2013-09-17 04:34:00,
2013-09-16 23:44:00,78.0,73.0,-100.00,East,97,2.0,7.0,84,0.00,,,0.00,0.000000,,2013-09-17 04:44:00,
2013-09-16 23:53:00,78.0,73.0,-100.00,East,97,2.0,7.0,84,0.00,,,0.00,0.000000,,2013-09-17 04:53:00,